[Iaude] MPEC D75: 2007 EG = 2024 CW2

mpec at cfa.harvard.edu mpec at cfa.harvard.edu
Mon Feb 19 22:02:27 EST 2024


M.P.E.C. 2024-D75                             Issued 2024 February 20, 02:58 UT

     The Minor Planet Electronic Circulars contain information on unusual
         minor planets, routine data on comets and natural satellites,
         and occasional editorial announcements.  They are published
    on behalf of Division F of the International Astronomical Union by the
          Minor Planet Center, Smithsonian Astrophysical Observatory,
                          Cambridge, MA 02138, U.S.A.
			  
             Prepared using the Tamkin Foundation Computer Network

                              MPC at CFA.HARVARD.EDU
            URL https://www.minorplanetcenter.net/    ISSN 1523-6714

                               2007 EG = 2024 CW2                               

                           Revision to MPEC 2007-E33

Orbital elements:
2007 EG = 2024 CW2                                       Earth MOID = 0.0096 AU
Id. R. Matson, P. VanWylen, S. Deen
Epoch 2024 Mar. 31.0 TT = JDT 2460400.5                 Veres                   
M 222.73294              (2000.0)            P               Q                  
n   1.50424537     Peri.  169.51206     +0.90835324     +0.41797737             
a   0.7543802      Node   165.75710     -0.38763004     +0.85383863             
e   0.3687053      Incl.    3.20587     -0.15696290     +0.31024911             
P   0.66           H   24.55          G   0.15           U   0                  
Residuals in seconds of arc
070309 703  0.6-  0.6+    070311 240  0.1-  0.1+    070315 104  1.1+  1.3-
070309 703  0.8-  0.8+    070311 240  0.1-  0.1-    070315 104  0.5-  0.9-
070309 703  0.3+  0.4+    070311 240  0.5+  0.4+    070315 104  1.7+  0.6-
070309 703  0.2-  0.4+    070311 240  0.3-  0.1+    240211 W93  0.0   0.1+
070309 703  0.3+  0.7+    070311 240  0.0   0.2+    240211 W93  0.2+  0.2+
070309 703  0.5-  0.4+    070311 246  0.2+  0.0     240211 W93  0.3+  0.1-
070309 703  1.2-  1.5+    070311 240  0.4+  0.6+    240211 W93  0.0   0.1+
070309 703  0.7-  1.0+    070311 246  0.6+  0.3-    240211 W93  0.1+  0.0
070309 703  1.1-  0.9+    070311 240  0.2-  0.0     240212 734 (0.2-  2.3-)
070309 703  0.5-  0.5+    070311 A53  0.7-  0.1+    240212 734  0.2-  0.2-
070309 703  0.9-  0.3+    070311 246  0.2+  0.3-    240212 734  0.0   0.8+
070309 703  0.9-  0.6+    070311 A53  0.1-  0.1+    240212 X09  0.3+  0.9-
070309 703  3.2-  3.0+    070311 A53  0.4-  0.4+    240212 X09  0.2-  0.1+
070309 703  0.6-  1.4+    070311 A53  0.0   0.2+    240212 958  0.2+  0.1-
070309 703  3.2-  2.1+    070312 H98  1.3+  0.7-    240212 958  0.8-  0.4+
070309 703  1.1-  0.9+    070312 H98  1.7+  0.1-    240212 958  0.0   0.0
070309 595  0.4-  0.4+    070312 H98  0.3+  1.1-    240212 J04  0.1+  0.2-
070309 J69 (5.7+  3.0-)   070312 H98  1.3+  0.7-    240212 J04  0.0   0.0
070309 595  0.4-  0.4+    070312 246  0.1-  0.3+    240212 Y65  0.0   0.1+
070309 J69 (6.0+  3.7-)   070312 246  0.1+  0.3-    240212 Y65  0.1+  0.4+
070309 J69 (5.8+  3.6-)   070312 246  0.4-  0.1-    240212 Y65  0.1+  0.2+
070309 595  0.5-  0.6+    070312 246  0.5+  0.1+    240212 Y65  0.1+  0.1-
070309 J69 (5.8+  3.4-)   070312 A48  0.8-  0.3-    240212 Y65  0.0   0.1+
070309 J69 (4.8+  2.5-)   070312 A48  0.5-  0.0     240212 Y65  0.1+  0.0
070309 473  0.0   0.1+    070312 A48  0.4-  0.2+    240213 B88  0.4-  0.2-
070309 473  0.1-  0.3+    070312 A48  0.8-  0.3+    240213 B88  0.2-  0.3+
070309 473  0.1-  0.1-    070312 A53  0.1+  0.7+    240213 B88  0.2+  0.3-
070309 473  0.2+  0.3+    070312 A53  0.3-  0.2+    240214 B88  0.1-  0.2+
070310 595  0.4-  0.5+    070312 A53  0.1-  0.0     240214 B88  0.3+  0.2+
070310 595  0.2-  0.4+    070312 A53  0.0   0.4+    240214 B88  0.4+  0.9-
070311 213  0.2+  0.0     070313 143  0.6-  0.1+    240215 Y66  0.2-  0.4+
070311 213  0.3-  0.0     070313 143  0.2+  0.1-    240215 Y66  0.3-  0.1-
070311 213  0.4-  0.1-    070315 104 (5.0+  1.0-)
070311 240  0.2+  0.3-    070315 104  4.1-  0.6-

Ephemeris:
2007 EG                  a,e,i = 0.75, 0.37, 3                   q = 0.4762
Date    TT    R. A. (2000) Decl.     Delta      r    Elong.  Phase     V
2024 01 21    16 51 03.9 -55 34 54   0.06658 0.9436    51.1   125.8    23.9
...
2024 02 05    06 30 35.5 -44 46 30   0.03076 0.9962   108.9    69.4    19.4
...
2024 02 13    05 53 34.1 -03 20 25   0.05224 1.0148   120.6    56.9    20.2
...
2024 02 19    05 48 03.8 +08 30 12   0.07584 1.0244   116.5    59.7    21.1
2024 02 20    05 47 43.2 +09 47 42   0.07996 1.0256   115.6    60.4    21.3
2024 02 21    05 47 29.1 +10 57 44   0.08411 1.0268   114.7    61.0    21.4
...
2024 02 27    05 47 46.8 +16 07 15   0.1093  1.0314   109.3    64.9    22.1
...
2024 03 06    05 51 02.2 +20 13 05   0.1426  1.0319   102.3    69.9    22.8
...
2024 03 21    06 01 14.7 +24 24 13   0.2002  1.0152    89.8    78.9    23.8

M. P. C. Staff               (C) Copyright 2024 MPC           M.P.E.C. 2024-D75





More information about the Iaude mailing list